sat.trackr.live / text

‹ back to catalog

STARLINK-30954

NORAD 58407 · 2023-180F

PAYLOAD ACTIVE UNKNOWN

§ Identity

Operator
Country
US
Launch date
2023-11-22
Launch site
AFETR
Launch vehicle
Mass (kg)
RCS (m²)

Purposes: comms

External: N2YO · Heavens-Above · Gunter

§ Orbital elements

Epoch: 2026-09-20T20:15:53.261280Z

Period
94.27 min
Inclination
43.0014°
Eccentricity
0.0001127
Mean motion
15.27585584 rev/d
Perigee alt
482.3 km
Apogee alt
483.8 km
Semi-major
6,861.2 km
B*
4.9840e-5
RAAN
30.3064°
Arg perigee
278.1959°
Mean anomaly
81.8765°
Rev number
15,747

§ Raw data

STARLINK-309541 58407U 23180F   26263.84436645  .00001110  00000+0  49840-4 0  99982 58407  43.0014  30.3064 0001127 278.1959  81.8765 15.27585584157475

JSON: /api/v1/satellites/58407 · /tle

For live sub-satellite position, see the globe view (requires WebGL).

§ Visibility from observer

Set your observer location to see the next 7 days of passes ≥ 10°. The values pass through the URL so the page stays shareable.

No JS? Fill the form by hand. The geolocation button needs JavaScript.